Regional Weather Roundup
Issued by NWS

Home | Current Version | Previous Version | Text Only | Print | Product List | Glossary On
Versions: 1 2 3 4 5 6 7 8 9 10 11 12 13 14 15 16 17 18 19 20 21 22 23 24 25 26 27
000
ASUS42 KTBW 200416
RWRFL
FLORIDA REGIONAL WEATHER ROUNDUP
NATIONAL WEATHER SERVICE TAMPA BAY RUSKIN FL
1100 PM EST SUN FEB 19 2017

NOTE: "FAIR" INDICATES FEW OR NO CLOUDS BELOW 12,000 FEET WITH NO
SIGNIFICANT WEATHER AND/OR OBSTRUCTIONS TO VISIBILITY.

FLZ001>010-012>015-112-114-115-200500-
PANHANDLE FLORIDA

CITY           SKY/WX    TMP DP  RH WIND       PRES   REMARKS
PENSACOLA      CLEAR     63  60  90 N3        30.12R
PENSACOLA NAS  PTCLDY    60  58  92 N3        30.11R FOG
MILTON NAS     LGT RAIN  56  56 100 CALM      30.13
CRESTVIEW      CLEAR     57  54  89 CALM      30.14R
DUKE FIELD     FAIR      59  58  97 CALM      30.12R
VALPARAISO     CLEAR     60  59  96 CALM      30.13R
MARY ESTHER    CLEAR     59  54  84 N3        30.11R
TRI COUNTY     FAIR      58  57  97 CALM      30.12R
PANAMA CITY    FAIR      58  56  93 NW3       30.11R
TYNDALL AFB    CLEAR     59  59 100 CALM      30.12R FOG
APALACHICOLA   CLEAR     60  60 100 CALM      30.10S

STATION/POSITION SKY/WX   TEMP    WIND        PRES    WAVE   SWELL
                          AIR SEA DIR/SP/G            HT/PER HT/PER
                          (F)     (DEG/KT/KT) (MB)    (FT/S) (FT/S)
30.1N   87.6W              68 68  170/  4/  4 1019.4R   2/ 5   2/ 5
28.8N   86.0W              70 71              1019.6R   2/ 6   2/ 6
PANAMA CITY BEAC           65     330/  4/  4 1020.0R
TOWER C                    66     210/  4/  4 1019.9S
28.5N   84.5W              68 70   60/  2/  2 1019.4R   2/ 6   2/ 6

$$
FLZ011-016>038-118-127-128-134-139-239-200500-
NORTH FLORIDA

CITY           SKY/WX    TMP DP  RH WIND       PRES   REMARKS
MARIANNA       CLEAR     59  56  89 CALM      30.10R
TALLAHASSEE    PTCLDY    60  59  96 CALM      30.11S
PERRY          CLEAR     63  62  96 CALM      30.12S
CROSS CITY     PTCLDY    61  61 100 CALM      30.11S
LAKE CITY      FAIR      55  55 100 CALM      30.10S
GAINESVILLE    CLEAR     61  53  75 CALM      30.11R
WILLISTON      CLEAR     63  63 100 CALM      30.11S FOG
PALATKA        FAIR      55  55 100 W3        30.11R
MAYPORT NAS    CLEAR     60  58  92 SW6       30.10R
JACKSONVILLE   CLEAR     58  58 100 CALM      30.10R
JAX NAS        CLEAR     65  59  81 S5        30.11R
FERNANDINA BEA FAIR      61  61 100 CALM      30.08R
ST AUGUSTINE   CLEAR     58  55  90 W3        30.11R

STATION/POSITION SKY/WX   TEMP    WIND        PRES    WAVE   SWELL
                          AIR SEA DIR/SP/G            HT/PER HT/PER
                          (F)     (DEG/KT/KT) (MB)    (FT/S) (FT/S)
SHELL POINT      NOT AVBL
KEATON BEACH               65     310/  5/  7 1019.2F
CEDAR KEY                  64     340/  1/  2 1019.8R
FERNANDINA                 62 66  260/  1/  2 1019.7R
30.7N   81.3W                 64                N/A     1
MAYPORT                    63 66  220/  4/  6 1019.4R
31.4N   80.9W              62 62  220/  4/  4 1018.7F   1
ST AUGUSTINE               63 67  220/  4/  5 1020.2R

$$
FLZ040-043>046-052-053-057-058-063-144-200500-
INTERIOR CENTRAL FLORIDA

CITY           SKY/WX    TMP DP  RH WIND       PRES   REMARKS
OCALA          CLEAR     59  55  88 CALM      30.11F
THE VILLAGES     N/A     63  63 100 CALM      30.02S
LEESBURG       CLEAR     65  60  84 NW5       30.12R
SANFORD        CLEAR     62  58  86 CALM      30.11R
ORLANDO EXEC   CLEAR     63  59  87 W7        30.11R
ORLANDO INTL   CLEAR     62  58  86 W9        30.12R
KISSIMMEE      CLEAR     63  60  90 NW3       30.12R
WINTER HAVEN   CLEAR     65  58  78 E3        30.12S
LAKELAND       CLEAR     61  57  88 N3        30.10F
BARTOW         FAIR      61  61 100 CALM      30.11F
OKEECHOBEE     CLEAR     57  55  94 CALM      30.11R

$$
FLZ041-047-054-059-064-141-147-200500-
EAST CENTRAL FLORIDA

CITY           SKY/WX    TMP DP  RH WIND       PRES   REMARKS
DAYTONA BEACH  CLEAR     59  59 100 CALM      30.11R
DELAND         CLEAR     59  57  94 CALM      30.10S
JFK SPACE CTR  CLEAR     59  58  97 CALM      30.09R
CAPE CANAVERAL CLEAR     62  58  86 CALM      30.09R
PATRICK AFB    CLEAR     68  63  83 CALM      30.10R
MELBOURNE      CLEAR     61  59  93 CALM      30.10R
VERO BEACH     CLEAR     60  58  92 CALM      30.10R
FT PIERCE      PTCLDY    56  56 100 NW3       30.09R
STUART         CLEAR     70  63  78 CALM      30.10R

STATION/POSITION SKY/WX   TEMP    WIND        PRES    WAVE   SWELL
                          AIR SEA DIR/SP/G            HT/PER HT/PER
                          (F)     (DEG/KT/KT) (MB)    (FT/S) (FT/S)
TRIDENT PIER               65 71  300/  1/  2 1020.3R
28.4N   80.5W                 71                N/A     1/ 7
27.5N   80.2W                 72                N/A     3/ 5

$$
FLZ050-056-061-142-242-148-248-149-249-151-251-155-255-
160-260-200500-
WEST CENTRAL FLORIDA

CITY           SKY/WX    TMP DP  RH WIND       PRES   REMARKS
CRYSTAL RIVER  FOG       55  55 100 CALM      30.11S VSB 1
INVERNESS      FAIR      61  61 100 CALM      30.11F
BROOKSVILLE    FOG       60  60 100 CALM      30.11F VSB 1/4
CLEARWATER AIR FOG       59  59 100 CALM      30.10R VSB 3/4
ST PETE CLEARW CLEAR     62  59  90 N3        30.10S
TAMPA INTL     CLEAR     63  59  87 N5        30.10S
TAMPA EXEC     CLEAR     59  55  88 CALM      30.11S
PLANT CITY     CLEAR     63  59  88 CALM      30.12S
MACDILL AFB    CLEAR     59  59 100 CALM      30.10R
PETER O KNIGHT CLEAR     64  63  94 CALM      30.10S
ST PETERSBURG  CLEAR     64  59  83 N3        30.09R
SARASOTA       CLEAR     60  58  92 CALM      30.08F FOG
VENICE           N/A     64  61  88 CALM      30.10S

STATION/POSITION SKY/WX   TEMP    WIND        PRES    WAVE   SWELL
                          AIR SEA DIR/SP/G            HT/PER HT/PER
                          (F)     (DEG/KT/KT) (MB)    (FT/S) (FT/S)
27.3N   84.2W                 72                N/A     2/ 6
CLEARWATER BEACH                  360/  4/  5   N/A
MIDDLE TAMPA BAY           67     330/  4/  5 1019.4S
VENICE                     69 70  350/  7/  8 1018.5F

$$
FLZ066-069-070-075>078-162-262-165-265-200500-
SOUTHWEST FLORIDA AND KEYS

CITY           SKY/WX    TMP DP  RH WIND       PRES   REMARKS
PUNTA GORDA    CLEAR     59  57  93 E12G17    30.11S
FT MYERS       CLEAR     68  66  93 N3        30.08S
SOUTHWEST INTL CLEAR     67  64  90 NE7       30.10R
NAPLES         CLEAR     70  66  87 N3        30.08S
MARCO ISLAND   CLEAR     68  64  88 NW5       30.08F
MARATHON       CLEAR     76  69  79 N7        30.07S
KEY WEST NAS   CLEAR     70  69  97 N9        30.08S
KEY WEST INTL  CLEAR     74  70  87 N8        30.09S

STATION/POSITION SKY/WX   TEMP    WIND        PRES    WAVE   SWELL
                          AIR SEA DIR/SP/G            HT/PER HT/PER
                          (F)     (DEG/KT/KT) (MB)    (FT/S) (FT/S)
NAPLES                        75              1018.6R
26.0N   85.6W              75 74   60/ 12/ 14 1019.2R   2/ 6
DRY TORTUGAS               73      70/  8/ 10 1018.8R
SAND KEY                   74                 1019.1S
LONG KEY                   76 78  340/ 11/ 12 1018.5R

$$
FLZ067-068-071>074-168-172>174-200500-
SOUTHEAST FLORIDA

CITY           SKY/WX    TMP DP  RH WIND       PRES   REMARKS
W PALM BEACH   CLEAR     73  60  63 NE3       30.09R
BOCA RATON     CLOUDY    72  63  73 NE6       30.09R
FT LAUDER-EXEC CLEAR     74  63  68 CALM      30.09R
FT LAUDERDALE  PTCLDY    73  66  78 NE5       30.08R
POMPANO BEACH  PTCLDY    74  64  71 NE9       30.09R
PEMBROKE PINES CLEAR     73  67  81 NE6       30.10R
OPA LOCKA      CLEAR     75  67  76 N5        30.09R
MIAMI          PTCLDY    72  68  87 N5        30.09R
WEST KENDALL   CLEAR     73  67  81 NE5       30.08S
HOMESTEAD      CLEAR     71  70  99 CALM      30.07S

STATION/POSITION SKY/WX   TEMP    WIND        PRES    WAVE   SWELL
                          AIR SEA DIR/SP/G            HT/PER HT/PER
                          (F)     (DEG/KT/KT) (MB)    (FT/S) (FT/S)
PORT EVERGLADES            75      50/  6/ 13 1018.6R
VIRGINIA KEY               75 81   20/  2/  4 1018.9R
LAKE WORTH                 75      40/ 10/ 12 1019.6R
FOWEY ROCKS                76 75   20/ 13/ 14 1019.0R

$$





USA.gov is the U.S. government's official web portal to all federal, state and local government web resources and services.